W5WDV Weather Reports


time (UTC)temp
C
wind
direction
speed
KPH
gust
KPH
rain 1hr
cm
rain 24hr
cm
rain mn
cm
humidity
%
barometer
mb
20260510095004 21 207 0.0 0.0 0.00 0.03 0.00 17 1010.8
20260510094507 21 207 0.0 0.0 0.00 0.03 0.00 17 1010.8
20260510093504 21 207 0.0 0.0 0.00 0.03 0.00 17 1010.4
20260510093005 21 207 0.0 0.0 0.00 0.03 0.00 17 1010.4
20260510092504 21 207 0.0 0.0 0.00 0.03 0.00 17 1010.4
20260510092006 21 207 0.0 0.0 0.00 0.03 0.00 17 1010.3
20260510091503 21 207 0.0 0.0 0.00 0.03 0.00 17 1010.4
20260510085504 21 207 0.0 0.0 0.00 0.03 0.00 17 1010.3
20260510085004 21 207 0.0 0.0 0.00 0.03 0.00 17 1010.3
20260510084504 22 207 0.0 0.0 0.00 0.03 0.00 17 1010.3
20260510084004 22 207 0.0 0.0 0.00 0.03 0.00 17 1010.3
20260510083504 22 207 0.0 0.0 0.00 0.03 0.00 17 1010.3
20260510083004 22 207 0.0 0.0 0.00 0.03 0.00 17 1010.3
20260510082503 22 207 0.0 0.0 0.00 0.03 0.00 17 1010.3
20260510082006 22 207 0.0 0.0 0.00 0.03 0.00 17 1010.3
20260510081503 22 207 0.0 0.0 0.00 0.03 0.00 17 1010.3
20260510080004 22 207 0.0 0.0 0.00 0.03 0.00 28 1010.3
20260510075505 22 207 0.0 0.0 0.00 0.03 0.00 29 1010.2
20260510074504 23 207 0.0 0.0 0.00 0.03 0.00 29 1010.3
20260510073503 23 207 0.0 0.0 0.00 0.03 0.00 31 1010.1
20260510073004 23 207 0.0 0.0 0.00 0.03 0.00 32 1010.2
20260510072507 23 207 0.0 0.0 0.00 0.03 0.00 33 1010.2
20260510072006 23 207 0.0 1.6 0.00 0.03 0.00 32 1010.2
20260510071503 23 207 0.0 1.6 0.00 0.03 0.00 29 1010.2
20260510071004 23 207 0.0 1.6 0.00 0.03 0.00 26 1010.2
20260510070504 23 205 0.0 4.8 0.00 0.03 0.00 19 1010.2
20260510070007 23 205 0.0 4.8 0.00 0.03 0.00 17 1010.2
20260510065505 23 219 0.0 0.0 0.00 0.03 0.00 17 1010.1
20260510065004 23 219 0.0 1.6 0.00 0.03 0.00 17 1010.1
20260510064504 23 215 0.0 4.8 0.00 0.03 0.00 17 1010.1
20260510064005 23 210 1.6 4.8 0.00 0.03 0.00 17 1010.1
20260510063504 23 204 0.0 0.0 0.00 0.03 0.00 17 1010.1
20260510062004 23 204 0.0 0.0 0.00 0.03 0.00 17 1010.2
20260510061504 23 204 0.0 0.0 0.00 0.03 0.00 17 1010.2
20260510061006 23 204 0.0 0.0 0.00 0.03 0.00 17 1010.2
20260510060504 23 204 0.0 0.0 0.00 0.03 0.00 17 1010.2
20260510055954 24 204 0.0 0.0 0.00 0.03 0.00 17 1010.1
20260510054955 24 204 0.0 0.0 0.00 0.03 0.00 17 1010.1
20260510053954 24 204 0.0 0.0 0.00 0.03 0.00 17 1010.2
20260510053454 24 204 0.0 0.0 0.00 0.03 0.00 17 1010.2
20260510052954 24 204 0.0 0.0 0.00 0.03 0.00 17 1010.2
20260510052454 24 204 0.0 0.0 0.00 0.03 0.00 17 1010.1
20260510051454 25 204 0.0 0.0 0.00 0.03 0.00 17 1010.0
20260510051000 25 204 0.0 0.0 0.00 0.03 0.00 17 1009.9
20260510045958 25 204 0.0 0.0 0.00 0.03 0.00 20 1009.7
20260510045453 25 204 0.0 0.0 0.00 0.03 0.03 22 1009.8
20260510044954 25 204 0.0 0.0 0.00 0.03 0.03 27 1009.7
20260510044453 25 204 0.0 3.2 0.00 0.03 0.03 31 1009.6
20260510043954 25 204 0.0 3.2 0.00 0.03 0.03 32 1009.6
20260510043456 25 204 0.0 4.8 0.00 0.03 0.03 35 1009.6
20260510042955 25 204 0.0 4.8 0.00 0.03 0.03 36 1009.7
20260510042453 25 187 0.0 4.8 0.00 0.03 0.03 39 1009.6
20260510041954 25 175 0.0 4.8 0.00 0.03 0.03 42 1009.7
20260510041453 25 175 1.6 4.8 0.00 0.03 0.03 45 1009.7
20260510040954 25 178 1.6 4.8 0.00 0.03 0.03 47 1009.7
20260510040454 25 175 1.6 4.8 0.00 0.03 0.03 48 1009.7
20260510035454 25 189 1.6 8.0 0.00 0.03 0.03 46 1009.5
20260510034953 25 213 0.0 0.0 0.00 0.03 0.03 45 1009.4
20260510034454 25 213 0.0 0.0 0.00 0.03 0.03 49 1009.3
20260510033954 26 213 0.0 0.0 0.00 0.03 0.03 50 1009.3
20260510033454 26 213 0.0 0.0 0.00 0.03 0.03 52 1009.3
20260510032955 26 213 0.0 0.0 0.00 0.03 0.03 55 1009.3
20260510031955 26 213 0.0 0.0 0.00 0.03 0.03 58 1009.1
20260510031453 26 213 0.0 4.8 0.00 0.03 0.03 59 1009.0
20260510030954 26 213 0.0 4.8 0.00 0.03 0.03 59 1009.0
20260510030453 26 173 0.0 4.8 0.00 0.03 0.03 59 1009.0
20260510025956 26 163 0.0 0.0 0.00 0.03 0.03 60 1008.8
20260510025454 26 163 0.0 0.0 0.00 0.03 0.03 61 1008.8
20260510023954 27 163 0.0 0.0 0.00 0.03 0.03 63 1008.6
20260510023453 27 162 0.0 0.0 0.00 0.03 0.03 64 1008.6
20260510022954 27 163 0.0 0.0 0.00 0.03 0.03 65 1008.6
20260510022456 27 163 0.0 0.0 0.00 0.03 0.03 66 1008.5
20260510021954 27 162 0.0 0.0 0.00 0.03 0.03 66 1008.6
20260510021453 27 162 0.0 0.0 0.00 0.03 0.03 67 1008.5
20260510020956 27 162 0.0 0.0 0.00 0.03 0.03 67 1008.4
20260510020455 27 162 0.0 0.0 0.00 0.03 0.03 68 1008.3
20260510015953 27 163 0.0 0.0 0.00 0.03 0.03 68 1008.3
20260510014957 27 162 0.0 4.8 0.00 0.03 0.03 68 1008.2
20260510014455 28 162 1.6 4.8 0.00 0.03 0.03 69 1008.2
20260510013954 28 166 1.6 8.0 0.00 0.03 0.03 69 1008.1
20260510013454 28 172 3.2 8.0 0.00 0.03 0.03 69 1007.9
20260510012954 28 161 1.6 8.0 0.00 0.03 0.03 69 1007.9
20260510012453 28 159 3.2 8.0 0.00 0.03 0.03 69 1007.9
20260510011955 28 164 3.2 8.0 0.00 0.03 0.03 69 1007.8
20260510011454 28 167 3.2 9.7 0.00 0.03 0.03 69 1007.7
20260510010954 28 177 3.2 11.3 0.00 0.03 0.03 68 1007.7
20260510010454 28 166 3.2 11.3 0.00 0.03 0.03 68 1007.6
20260510005454 29 174 3.2 11.3 0.00 0.03 0.03 67 1007.6
20260510004954 29 160 4.8 11.3 0.00 0.03 0.03 67 1007.5
20260510004455 29 156 4.8 11.3 0.00 0.03 0.03 67 1007.5
20260510003954 30 167 3.2 14.5 0.00 0.03 0.03 66 1007.5
20260510003455 30 170 4.8 14.5 0.00 0.03 0.03 67 1007.4
20260510002954 30 147 4.8 19.3 0.00 0.03 0.03 67 1007.3
20260510002454 30 183 6.4 19.3 0.00 0.03 0.03 67 1007.2
20260510001954 30 193 6.4 19.3 0.00 0.03 0.03 67 1007.2
20260510000954 30 154 4.8 11.3 0.00 0.03 0.03 67 1007.1
20260510000455 29 148 1.6 8.0 0.00 0.03 0.03 68 1007.0
20260509235956 29 104 0.0 0.0 0.00 0.03 0.03 67 1006.9
20260509235454 29 104 0.0 8.0 0.00 0.03 0.03 67 1006.8
20260509234955 29 106 0.0 12.9 0.00 0.03 0.03 67 1006.9
20260509234454 30 60 4.8 12.9 0.00 0.03 0.03 68 1006.7
20260509233954 30 85 3.2 4.8 0.00 0.03 0.03 68 1006.7
20260509233455 31 92 0.0 0.0 0.00 0.03 0.03 68 1006.6
20260509232454 31 2 0.0 0.0 0.00 0.03 0.03 68 1006.4
20260509231954 31 0 0.0 0.0 0.00 0.03 0.03 66 1006.5
20260509230454 31 3 1.6 8.0 0.00 0.03 0.03 65 1007.2
20260509225955 32 130 1.6 8.0 0.00 0.03 0.03 64 1007.3
20260509225454 32 162 1.6 8.0 0.00 0.03 0.03 64 1007.0
20260509224955 32 225 1.6 8.0 0.00 0.03 0.03 64 1007.1
20260509224454 32 199 1.6 8.0 0.00 0.03 0.03 63 1007.1
20260509223954 32 191 1.6 4.8 0.00 0.03 0.03 64 1007.0
20260509223455 32 173 3.2 11.3 0.00 0.03 0.03 64 1006.8
20260509222958 32 184 3.2 11.3 0.00 0.03 0.03 64 1006.8
20260509221456 32 217 1.6 12.9 0.00 0.03 0.03 64 1006.9
20260509220954 32 225 4.8 12.9 0.00 0.03 0.03 64 1007.0
20260509215954 32 188 6.4 11.3 0.00 0.03 0.03 63 1006.8
20260509215454 33 216 6.4 11.3 0.00 0.03 0.03 63 1006.9
20260509214453 33 170 4.8 19.3 0.00 0.03 0.03 63 1007.0
20260509213954 33 212 4.8 9.7 0.00 0.03 0.03 61 1007.0
20260509213454 33 213 3.2 9.7 0.00 0.03 0.03 60 1006.9
20260509212454 33 277 3.2 9.7 0.00 0.03 0.03 62 1007.1
20260509211954 33 228 4.8 9.7 0.00 0.03 0.03 62 1007.1
20260509211454 33 146 3.2 12.9 0.00 0.03 0.03 60 1007.2
20260509210456 34 215 4.8 12.9 0.00 0.03 0.03 59 1007.4
20260509205457 34 186 1.6 4.8 0.00 0.03 0.03 62 1007.6
20260509204954 33 295 1.6 4.8 0.00 0.03 0.03 62 1007.6
20260509203954 33 288 3.2 11.3 0.00 0.03 0.03 62 1007.7
20260509203454 33 284 1.6 11.3 0.00 0.03 0.03 61 1007.7
20260509202955 33 207 1.6 4.8 0.00 0.03 0.03 62 1007.9
20260509202455 33 240 0.0 9.7 0.00 0.03 0.03 63 1007.9
20260509201955 33 281 3.2 9.7 0.00 0.03 0.03 63 1007.9
20260509201454 32 211 0.0 8.0 0.00 0.03 0.03 65 1008.0
20260509200954 32 211 0.0 8.0 0.00 0.03 0.03 65 1008.1
20260509200456 32 216 1.6 8.0 0.00 0.03 0.03 65 1008.2
20260509194955 32 207 1.6 4.8 0.00 0.03 0.03 66 1008.6
20260509193956 32 213 0.0 11.3 0.00 0.03 0.03 67 1008.8
20260509193455 32 217 4.8 11.3 0.00 0.03 0.03 64 1008.9
20260509192454 32 294 1.6 4.8 0.00 0.03 0.03 67 1009.0
20260509191955 32 220 0.0 4.8 0.00 0.03 0.03 67 1009.1
20260509191454 32 248 1.6 4.8 0.00 0.03 0.03 65 1009.1
20260509190955 32 319 1.6 4.8 0.00 0.03 0.03 65 1009.2
20260509185954 31 309 0.0 4.8 0.00 0.03 0.03 67 1009.2
20260509185454 31 309 1.6 4.8 0.00 0.03 0.03 67 1009.3
20260509184457 30 311 1.6 4.8 0.00 0.03 0.03 67 1009.4
20260509183455 31 218 0.0 4.8 0.00 0.03 0.03 67 1009.4
20260509182954 31 214 0.0 3.2 0.00 0.03 0.03 67 1009.5
20260509182455 31 188 1.6 9.7 0.00 0.03 0.03 66 1009.6
20260509181954 31 187 3.2 9.7 0.00 0.03 0.03 67 1009.6
20260509181455 31 96 0.0 4.8 0.00 0.03 0.03 66 1009.7
20260509180954 31 70 1.6 4.8 0.00 0.03 0.03 66 1009.7
20260509180855 31 76 1.6 4.8 0.00 0.03 0.03 66 1009.7
20260509180456 31 53 1.6 4.8 0.00 0.03 0.03 66 1009.8
20260509175954 30 312 3.2 4.8 0.00 0.03 0.03 65 1009.9
20260509175454 30 318 1.6 4.8 0.00 0.03 0.03 64 1009.9
20260509174955 30 357 1.6 4.8 0.00 0.03 0.03 65 1009.9
20260509174454 30 317 1.6 4.8 0.00 0.03 0.03 64 1010.0
20260509173454 30 98 1.6 4.8 0.00 0.03 0.03 55 1010.1
20260509172955 29 322 1.6 4.8 0.00 0.03 0.03 54 1010.2
20260509172454 29 316 1.6 3.2 0.00 0.03 0.03 47 1010.2
20260509171957 28 317 1.6 4.8 0.00 0.03 0.03 46 1010.4
20260509170958 28 320 3.2 8.0 0.00 0.03 0.03 28 1010.3
20260509170454 27 336 1.6 4.8 0.00 0.03 0.03 20 1010.3
20260509165955 27 337 0.0 4.8 0.00 0.03 0.03 17 1010.3
20260509165454 27 349 1.6 11.3 0.00 0.03 0.03 17 1010.3
20260509164454 26 332 1.6 4.8 0.00 0.03 0.03 17 1010.3
20260509163454 25 324 3.2 4.8 0.00 0.03 0.03 17 1010.3
20260509162955 25 306 1.6 4.8 0.00 0.03 0.03 17 1010.3
20260509162454 24 312 1.6 4.8 0.00 0.03 0.03 17 1010.0
20260509161454 23 322 3.2 8.0 0.00 0.03 0.03 17 1010.1
20260509160955 23 239 0.0 3.2 0.00 0.03 0.03 17 1009.9
20260509160454 23 239 0.0 3.2 0.00 0.03 0.03 17 1009.9
20260509155956 23 248 1.6 3.2 0.00 0.03 0.03 17 1010.0
20260509155454 23 192 0.0 3.2 0.00 0.03 0.03 17 1010.3
20260509154956 23 184 0.0 1.6 0.00 0.03 0.03 17 1010.3
20260509154457 23 184 0.0 1.6 0.00 0.03 0.03 17 1010.4
20260509153954 23 184 0.0 0.0 0.00 0.03 0.03 17 1010.4
20260509153458 23 184 0.0 0.0 0.00 0.03 0.03 17 1010.6
20260509152954 23 184 0.0 0.0 0.00 0.03 0.03 17 1010.8
20260509152454 23 184 0.0 0.0 0.00 0.03 0.03 17 1010.9
20260509151954 23 184 0.0 0.0 0.00 0.03 0.03 17 1010.9
20260509151455 23 184 0.0 0.0 0.00 0.03 0.03 17 1010.9
20260509150455 22 184 0.0 0.0 0.00 0.03 0.03 17 1010.9
20260509145954 22 184 0.0 0.0 0.00 0.03 0.03 17 1010.9
20260509145454 22 184 0.0 0.0 0.00 0.03 0.03 17 1010.9
20260509144955 22 184 0.0 0.0 0.00 0.03 0.03 17 1010.9
20260509143955 22 184 0.0 0.0 0.00 0.03 0.03 17 1010.9
20260509143454 22 184 0.0 0.0 0.00 0.03 0.03 17 1010.9
20260509142956 22 184 0.0 0.0 0.00 0.03 0.03 17 1011.0
20260509141955 22 203 0.0 0.0 0.00 0.03 0.03 17 1011.1
20260509141454 22 204 0.0 0.0 0.00 0.03 0.03 17 1010.9
20260509140955 22 193 0.0 0.0 0.00 0.03 0.03 17 1010.9
20260509140454 22 148 0.0 0.0 0.00 0.03 0.03 17 1010.8
20260509135955 22 148 0.0 0.0 0.00 0.03 0.03 17 1010.6
20260509135456 22 146 0.0 0.0 0.00 0.03 0.03 17 1010.5
20260509134955 22 144 0.0 0.0 0.00 0.03 0.03 17 1009.8
20260509134454 22 159 0.0 0.0 0.00 0.03 0.03 17 1009.4
20260509133954 22 165 0.0 0.0 0.00 0.03 0.03 17 1009.3
20260509133455 22 168 0.0 0.0 0.00 0.03 0.03 17 1009.2
20260509132954 22 171 0.0 0.0 0.00 0.03 0.03 17 1009.3
20260509132455 22 171 0.0 0.0 0.00 0.03 0.03 17 1009.5
20260509131954 22 171 0.0 4.8 0.00 0.03 0.03 17 1009.6
20260509131454 22 171 0.0 4.8 0.00 0.03 0.03 17 1009.7
20260509130955 22 179 0.0 3.2 0.00 0.03 0.03 17 1010.0
20260509130454 22 183 0.0 4.8 0.00 0.03 0.03 17 1009.9
20260509125954 22 185 0.0 4.8 0.00 0.03 0.03 17 1010.0
20260509125454 22 148 0.0 0.0 0.00 0.03 0.03 17 1010.1
20260509124958 22 114 0.0 0.0 0.00 0.03 0.03 17 1010.3
20260509124456 22 113 0.0 0.0 0.00 0.03 0.03 17 1010.4
20260509123955 22 113 0.0 0.0 0.00 0.03 0.03 17 1010.3
20260509123454 22 113 0.0 0.0 0.00 0.03 0.03 17 1010.3
20260509122955 22 109 0.0 0.0 0.00 0.03 0.03 17 1010.4
20260509122454 22 101 0.0 0.0 0.00 0.03 0.03 17 1010.5
20260509121956 22 101 0.0 0.0 0.00 0.03 0.03 17 1010.5
20260509121454 22 30 0.0 4.8 0.00 0.03 0.03 17 1010.4
20260509120955 22 355 1.6 11.3 0.00 0.03 0.03 17 1010.4
20260509120454 22 68 3.2 11.3 0.00 0.03 0.03 17 1010.6
20260509115957 22 58 3.2 9.7 0.00 0.03 0.03 17 1010.4
20260509115454 22 66 1.6 4.8 0.00 0.03 0.03 17 1010.4
20260509114454 22 77 0.0 9.7 0.00 0.03 0.03 17 1010.2
20260509113955 22 52 1.6 9.7 0.00 0.03 0.03 17 1010.0
20260509112454 22 97 0.0 0.0 0.00 0.03 0.03 17 1009.3
20260509111458 22 97 0.0 0.0 0.00 0.03 0.03 17 1009.2
20260509110957 22 97 0.0 0.0 0.00 0.03 0.03 17 1009.2
20260509110455 22 97 0.0 0.0 0.03 0.03 0.03 17 1009.3
20260509105955 22 97 0.0 0.0 0.03 0.03 0.03 17 1009.3
20260509105455 22 97 0.0 0.0 0.03 0.03 0.03 17 1009.3
20260509104956 22 98 0.0 0.0 0.03 0.03 0.03 17 1009.5
20260509104455 22 98 0.0 0.0 0.03 0.03 0.03 17 1009.5
20260509103958 22 98 0.0 0.0 0.03 0.03 0.03 17 1009.5
20260509103455 22 98 0.0 0.0 0.03 0.03 0.03 17 1009.5
20260509102954 22 98 0.0 0.0 0.03 0.03 0.03 17 1009.5
20260509102455 22 98 0.0 0.0 0.03 0.03 0.03 17 1009.5
20260509101955 22 98 0.0 0.0 0.03 0.03 0.03 17 1009.7
20260509101455 22 98 0.0 0.0 0.03 0.03 0.03 17 1009.7
20260509100955 22 104 0.0 0.0 0.03 0.03 0.03 17 1009.7
20260509100454 22 104 0.0 0.0 0.00 0.00 0.00 17 1009.7
20260509095956 22 104 0.0 0.0 0.00 0.00 0.00 17 1009.4
20260509095454 22 105 0.0 0.0 0.00 0.00 0.00 17 1009.2